Terug naar catalogus

TIANTONG-1 3

ActiefCommunicatieGEO
NORAD 47321·PAYLOAD·🇨🇳 China

Gelanceerd Jan 19, 2021 vanaf Xichang Satellite Launch Center

Loading…

TLE

VersSource: Space-Track

Epoch: Sep 14, 2026, 22:44 UTC

1 47321U 21003A   26257.94765419 -.00000161  00000-0  00000-0 0  9999
2 47321   1.7022 345.0535 0003311 202.5517 228.9637  1.00270098 20866

Volg TIANTONG-1 3 in realtime met AllMySat

Download on the App Store